Вернуться в каталог

STARLINK-34526

АктивенСвязьVLEO
NORAD 64481·PAYLOAD·🇺🇸 United States

Запущен Jun 23, 2025 с Cape Canaveral Space Force Station

Loading…

Ближайшие Пролёты (ближайшие 24 часа)

TLE

СвежийSource: CelesTrak SupGP

Эпоха: Sep 15, 2026, 03:32 UTC

1 64481C 25133K   26258.14770833  .00039804  00000+0  11759-2 0  2589
2 64481  53.1588 314.8743 0001249  90.2609 220.6747 15.34374684    11

Отслеживайте STARLINK-34526 в реальном времени с AllMySat

Download on the App Store